Weather History for Morrisville, VT

Change the Weather History Date:

Saturday, July 6, 2013

  Actual Average Record
Temperature  
Mean Temperature 74 °F 67 °F  
Max Temperature 84 °F 79 °F 91 °F (2010)
Min Temperature 63 °F 55 °F 45 °F (2000)
Degree Days  
Heating Degree Days 0 1  
Month to date heating degree days 0 7  
Since 1 June heating degree days 130 130  
Since 1 July heating degree days 0 7  
Cooling Degree Days 9 3  
Month to date cooling degree days 52 18  
Year to date cooling degree days 148 74  
Since 1 June cooling degree days 128 66  
Growing Degree Days 24 (Base 50)    
Moisture  
Dew Point 66 °F    
Average Humidity 73    
Maximum Humidity 100    
Minimum Humidity 46    
Precipitation  
Precipitation 0.00 in 0.15 in 1.19 in (1999)
Month to date precipitation 2.00 0.88  
Year to date precipitation 22.63 16.48  
Sea Level Pressure  
Sea Level Pressure 30.06 in    
Wind  
Wind Speed 3 mph (West)    
Max Wind Speed 13 mph    
Max Gust Speed 20 mph    
Visibility 9 miles    
Events      
T = Trace of Precipitation, MM = Missing Value Source: NWS Daily Summary

Daily Weather History Graph

Daily Weather History Graph

Search for Another Location

Airport:

Trip Planner

Search our weather history database for the weather conditions in past years. The results will help you decide how hot, cold, wet, or windy it might be!

Date:

Astronomy

Jul. 06, 2013 Rise Set
Actual Time 5:12 AM EDT 8:37 PM EDT
Civil Twilight 4:36 AM EDT 9:13 PM EDT
Nautical Twilight 3:48 AM EDT 10:01 PM EDT
Astronomical Twilight 2:48 AM EDT 11:01 PM EDT
Moon 3:58 AM EDT (7/6) 7:14 PM EDT (7/6)
Length of Visible Light 16h 37m
Length of Day
15h 24m
Waning Crescent, 2% of the Moon is Illuminated
Jul 6
Waning Crescent
Jul 8
New
Jul 15
First Quarter
Jul 22
Full
Jul 29
Last Quarter

Hourly Weather History & Observations

Time (EDT) Temp. Heat Index Dew Point Humidity Pressure Visibility Wind Dir Wind Speed Gust Speed Precip Events Conditions
12:54 AM 70.0 °F - 69.1 °F 97% 30.07 in 7.0 mi Calm Calm - N/A   Partly Cloudy
1:13 AM 69.8 °F - 69.8 °F 100% 30.08 in 5.0 mi South 3.5 mph - N/A   Mostly Cloudy
1:54 AM 70.0 °F - 69.1 °F 97% 30.07 in 7.0 mi Calm Calm - N/A   Overcast
2:54 AM 71.1 °F - 69.1 °F 93% 30.07 in 10.0 mi Calm Calm - N/A   Overcast
3:54 AM 70.0 °F - 68.0 °F 93% 30.06 in 9.0 mi Calm Calm - N/A   Mostly Cloudy
4:39 AM 69.8 °F - 68.0 °F 94% 30.08 in 5.0 mi Calm Calm - N/A   Mostly Cloudy
4:54 AM 69.1 °F - 68.0 °F 96% 30.08 in 8.0 mi Calm Calm - N/A   Overcast
5:54 AM 69.1 °F - 68.0 °F 96% 30.08 in 5.0 mi Calm Calm - N/A   Overcast
6:54 AM 71.1 °F - 68.0 °F 90% 30.09 in 10.0 mi Calm Calm - N/A   Overcast
7:54 AM 72.0 °F - 69.1 °F 91% 30.09 in 10.0 mi Calm Calm - N/A   Overcast
8:54 AM 73.0 °F - 69.1 °F 87% 30.09 in 10.0 mi ESE 4.6 mph - N/A   Overcast
9:54 AM 77.0 °F - 68.0 °F 74% 30.07 in 10.0 mi SSW 5.8 mph - N/A   Mostly Cloudy
10:54 AM 78.1 °F - 66.0 °F 66% 30.07 in 10.0 mi North 5.8 mph - N/A   Mostly Cloudy
11:54 AM 79.0 °F - 66.9 °F 66% 30.08 in 10.0 mi Variable 4.6 mph - N/A   Overcast
12:54 PM 79.0 °F - 66.9 °F 66% 30.08 in 10.0 mi NNE 4.6 mph - N/A   Overcast
1:54 PM 82.0 °F 82.1 °F 59.0 °F 45% 30.06 in 10.0 mi WNW 6.9 mph - N/A   Clear
2:54 PM 82.9 °F 83.2 °F 60.1 °F 46% 30.06 in 10.0 mi Calm Calm - N/A   Clear
3:54 PM 82.9 °F 83.3 °F 61.0 °F 47% 30.04 in 10.0 mi NW 10.4 mph - N/A   Clear
4:54 PM 82.9 °F 83.3 °F 61.0 °F 47% 30.03 in 10.0 mi West 6.9 mph - N/A   Clear
5:54 PM 82.0 °F 82.4 °F 60.1 °F 47% 30.02 in 10.0 mi West 5.8 mph - N/A   Clear
6:54 PM 82.0 °F 83.0 °F 62.1 °F 51% 30.01 in 10.0 mi Calm Calm - N/A   Clear
7:54 PM 75.9 °F - 66.0 °F 71% 30.01 in 10.0 mi Calm Calm - N/A   Clear
8:54 PM 70.0 °F - 64.9 °F 84% 30.02 in 10.0 mi Calm Calm - N/A   Clear
9:54 PM 68.0 °F - 64.9 °F 90% 30.04 in 10.0 mi South 5.8 mph - N/A   Clear
10:54 PM 66.0 °F - 63.0 °F 90% 30.05 in 9.0 mi Calm Calm - N/A   Clear
11:54 PM 64.0 °F - 62.1 °F 93% 30.06 in 6.0 mi Calm Calm - N/A   Clear